Location: Newark
(41.0400°S, 62.7845°W)
Time: 23:57:23
(UTC+00:00)

Vanguard 2 - Pass Details

Date: 12 December 2021
Orbit: 554 x 2935 km, 32.9° (Epoch: 27 January)

Event Time Altitude Azimuth Distance (km) Brightness Sun altitude
Rises 00:32:49 0° 327° (NNW) 5,527 11.8 -9.2°
Reaches altitude 10° 00:36:30 10° 335° (NNW) 4,826 11.4 -9.7°
Maximum altitude 00:49:19 37° 35° (NE) 3,791 10.5 -11.5°
Drops below altitude 10° 01:04:34 10° 93° (E) 5,754 11.6 -13.5°
Sets 01:09:25 0° 99° (E) 6,675 12.0 -14.1°
